| time (UTC) | temp F | wind direction | speed knots | gust knots | rain 1hr in | rain 24hr in | rain mn in | humidity % | barometer mb |
| 20260505052506 | 59 | 214 | 0.0 | 0.0 | 0.00 | 0.00 | 0.00 | 71 | 1012.0 |
| 20260505052007 | 59 | 214 | 0.0 | 0.0 | 0.00 | 0.00 | 0.00 | 70 | 1012.1 |
| 20260505051007 | 59 | 214 | 0.0 | 0.9 | 0.00 | 0.00 | 0.00 | 70 | 1012.2 |
| 20260505050506 | 59 | 214 | 0.0 | 0.9 | 0.00 | 0.00 | 0.00 | 69 | 1012.1 |
| 20260505041510 | 59 | 20 | 0.0 | 1.7 | 0.00 | 0.00 | 0.00 | 65 | 1011.9 |
| 20260505040508 | 59 | 188 | 0.0 | 0.9 | 0.00 | 0.00 | 0.00 | 64 | 1011.9 |
| 20260505040025 | 60 | 188 | 0.0 | 0.9 | 0.00 | 0.00 | 0.00 | 64 | 1011.9 |
| 20260505035508 | 60 | 188 | 0.0 | 0.9 | 0.00 | 0.00 | 0.00 | 64 | 1011.8 |
| 20260505035009 | 60 | 188 | 0.0 | 0.0 | 0.00 | 0.00 | 0.00 | 63 | 1011.8 |
| 20260505034509 | 60 | 188 | 0.0 | 0.0 | 0.00 | 0.00 | 0.00 | 63 | 1011.8 |
| 20260505034009 | 60 | 188 | 0.0 | 1.7 | 0.00 | 0.00 | 0.00 | 62 | 1011.9 |
| 20260505033508 | 60 | 188 | 0.0 | 2.6 | 0.00 | 0.00 | 0.00 | 62 | 1011.9 |
| 20260505033010 | 60 | 196 | 0.0 | 0.0 | 0.00 | 0.00 | 0.00 | 62 | 1011.9 |
| 20260505032508 | 60 | 196 | 0.0 | 0.0 | 0.00 | 0.00 | 0.00 | 62 | 1012.0 |
| 20260505032009 | 60 | 196 | 0.0 | 2.6 | 0.00 | 0.00 | 0.00 | 62 | 1011.9 |
| 20260505031510 | 60 | 217 | 0.0 | 1.7 | 0.00 | 0.00 | 0.00 | 62 | 1011.8 |
| 20260505031010 | 60 | 125 | 0.0 | 1.7 | 0.00 | 0.00 | 0.00 | 62 | 1011.9 |
| 20260505025508 | 60 | 157 | 0.9 | 1.7 | 0.00 | 0.00 | 0.00 | 63 | 1011.8 |
| 20260505024509 | 60 | 167 | 0.0 | 3.5 | 0.00 | 0.00 | 0.00 | 62 | 1012.1 |
| 20260505024009 | 60 | 196 | 0.9 | 3.5 | 0.00 | 0.00 | 0.00 | 62 | 1012.1 |
| 20260505023508 | 60 | 146 | 0.0 | 2.6 | 0.00 | 0.00 | 0.00 | 61 | 1012.1 |
| 20260505023011 | 60 | 137 | 0.0 | 0.0 | 0.00 | 0.00 | 0.00 | 61 | 1012.1 |
| 20260505022508 | 61 | 137 | 0.0 | 0.0 | 0.00 | 0.00 | 0.00 | 61 | 1012.1 |
| 20260505022018 | 61 | 137 | 0.0 | 0.0 | 0.00 | 0.00 | 0.00 | 61 | 1012.2 |
| 20260505020508 | 61 | 137 | 0.0 | 0.0 | 0.00 | 0.00 | 0.00 | 60 | 1012.2 |
| 20260505020018 | 61 | 137 | 0.0 | 1.7 | 0.00 | 0.00 | 0.00 | 59 | 1012.2 |
| 20260505015508 | 61 | 137 | 0.0 | 1.7 | 0.00 | 0.00 | 0.00 | 59 | 1012.2 |
| 20260505014508 | 62 | 134 | 0.0 | 0.9 | 0.00 | 0.00 | 0.00 | 59 | 1011.9 |
| 20260505014026 | 62 | 134 | 0.0 | 0.9 | 0.00 | 0.00 | 0.00 | 59 | 1012.0 |
| 20260505013508 | 62 | 132 | 0.0 | 0.0 | 0.00 | 0.00 | 0.00 | 59 | 1012.1 |
| 20260505013010 | 63 | 132 | 0.0 | 0.0 | 0.00 | 0.00 | 0.00 | 59 | 1012.2 |
| 20260505012010 | 63 | 132 | 0.0 | 0.0 | 0.00 | 0.00 | 0.00 | 58 | 1012.0 |
| 20260505011510 | 63 | 132 | 0.0 | 0.9 | 0.00 | 0.00 | 0.00 | 58 | 1011.9 |
| 20260505011018 | 63 | 132 | 0.0 | 0.9 | 0.00 | 0.00 | 0.00 | 58 | 1011.9 |
| 20260505010019 | 63 | 152 | 0.0 | 0.9 | 0.00 | 0.00 | 0.00 | 57 | 1011.7 |
| 20260505004509 | 63 | 136 | 0.0 | 3.5 | 0.00 | 0.00 | 0.00 | 57 | 1011.6 |
| 20260505004018 | 63 | 139 | 0.0 | 3.5 | 0.00 | 0.00 | 0.00 | 56 | 1011.6 |
| 20260505003508 | 63 | 159 | 0.0 | 0.0 | 0.00 | 0.00 | 0.00 | 55 | 1011.4 |
| 20260505003022 | 63 | 159 | 0.0 | 0.0 | 0.00 | 0.00 | 0.00 | 54 | 1011.3 |
| 20260505002508 | 64 | 159 | 0.0 | 0.0 | 0.00 | 0.00 | 0.00 | 53 | 1011.3 |
| 20260505002019 | 64 | 24 | 0.0 | 0.0 | 0.00 | 0.00 | 0.00 | 53 | 1011.2 |
| 20260505000508 | 66 | 24 | 0.0 | 0.0 | 0.00 | 0.00 | 0.00 | 48 | 1011.2 |
| 20260505000024 | 67 | 24 | 0.0 | 0.9 | 0.00 | 0.00 | 0.00 | 48 | 1011.0 |
| 20260504235508 | 67 | 24 | 0.0 | 1.7 | 0.00 | 0.00 | 0.00 | 48 | 1011.0 |
| 20260504235024 | 68 | 24 | 0.0 | 2.6 | 0.00 | 0.00 | 0.00 | 46 | 1010.9 |
| 20260504234510 | 68 | 50 | 0.9 | 3.5 | 0.00 | 0.00 | 0.00 | 47 | 1010.9 |
| 20260504234010 | 68 | 235 | 0.0 | 3.5 | 0.00 | 0.00 | 0.00 | 46 | 1010.9 |
| 20260504233508 | 69 | 216 | 0.9 | 2.6 | 0.00 | 0.00 | 0.00 | 45 | 1011.0 |
| 20260504233011 | 69 | 227 | 0.9 | 6.1 | 0.00 | 0.00 | 0.00 | 44 | 1010.9 |
| 20260504232508 | 69 | 240 | 0.9 | 5.2 | 0.00 | 0.00 | 0.00 | 44 | 1010.9 |
| 20260504232009 | 70 | 266 | 1.7 | 5.2 | 0.00 | 0.00 | 0.00 | 43 | 1010.9 |
| 20260504231008 | 70 | 269 | 2.6 | 5.2 | 0.00 | 0.00 | 0.00 | 42 | 1010.7 |
| 20260504230508 | 70 | 178 | 1.7 | 5.2 | 0.00 | 0.00 | 0.00 | 43 | 1010.8 |
| 20260504225507 | 70 | 71 | 0.9 | 5.2 | 0.00 | 0.00 | 0.00 | 43 | 1010.8 |
| 20260504225008 | 70 | 267 | 2.6 | 7.0 | 0.00 | 0.00 | 0.00 | 42 | 1010.7 |
| 20260504224509 | 70 | 208 | 1.7 | 7.0 | 0.00 | 0.00 | 0.00 | 42 | 1010.7 |
| 20260504224008 | 71 | 247 | 1.7 | 4.3 | 0.00 | 0.00 | 0.00 | 42 | 1010.7 |
| 20260504223507 | 71 | 165 | 1.7 | 4.3 | 0.00 | 0.00 | 0.00 | 41 | 1010.7 |
| 20260504223009 | 71 | 220 | 0.9 | 4.3 | 0.00 | 0.00 | 0.00 | 41 | 1010.7 |
| 20260504222507 | 71 | 186 | 1.7 | 4.3 | 0.00 | 0.00 | 0.00 | 41 | 1010.8 |
| 20260504222009 | 71 | 132 | 0.9 | 7.8 | 0.00 | 0.00 | 0.00 | 41 | 1010.9 |
| 20260504221508 | 71 | 248 | 2.6 | 7.8 | 0.00 | 0.00 | 0.00 | 40 | 1010.9 |
| 20260504221010 | 71 | 217 | 2.6 | 6.1 | 0.00 | 0.00 | 0.00 | 39 | 1010.9 |
| 20260504220507 | 71 | 124 | 1.7 | 5.2 | 0.00 | 0.00 | 0.00 | 40 | 1010.9 |
| 20260504220011 | 72 | 137 | 1.7 | 5.2 | 0.00 | 0.00 | 0.00 | 41 | 1010.9 |
| 20260504215507 | 72 | 262 | 1.7 | 7.8 | 0.00 | 0.00 | 0.00 | 40 | 1010.9 |
| 20260504215008 | 72 | 163 | 2.6 | 7.8 | 0.00 | 0.00 | 0.00 | 41 | 1011.1 |
| 20260504214008 | 72 | 250 | 3.5 | 10.4 | 0.00 | 0.00 | 0.00 | 39 | 1011.1 |
| 20260504213507 | 72 | 25 | 1.7 | 7.8 | 0.00 | 0.00 | 0.00 | 39 | 1011.2 |
| 20260504213009 | 72 | 294 | 3.5 | 7.8 | 0.00 | 0.00 | 0.00 | 38 | 1011.2 |
| 20260504212507 | 72 | 355 | 1.7 | 7.0 | 0.00 | 0.00 | 0.00 | 40 | 1011.2 |
| 20260504212008 | 72 | 269 | 1.7 | 7.8 | 0.00 | 0.00 | 0.00 | 40 | 1011.1 |
| 20260504211509 | 72 | 288 | 3.5 | 7.8 | 0.00 | 0.00 | 0.00 | 39 | 1011.2 |
| 20260504211008 | 72 | 93 | 0.9 | 8.7 | 0.00 | 0.00 | 0.00 | 42 | 1011.2 |
| 20260504205507 | 72 | 213 | 2.6 | 8.7 | 0.00 | 0.00 | 0.00 | 41 | 1011.3 |
| 20260504205008 | 73 | 268 | 2.6 | 8.7 | 0.00 | 0.00 | 0.00 | 38 | 1011.3 |
| 20260504204508 | 72 | 333 | 0.9 | 4.3 | 0.00 | 0.00 | 0.00 | 40 | 1011.2 |
| 20260504204008 | 72 | 201 | 1.7 | 11.3 | 0.00 | 0.00 | 0.00 | 39 | 1011.2 |
| 20260504203507 | 72 | 267 | 2.6 | 11.3 | 0.00 | 0.00 | 0.00 | 41 | 1011.3 |
| 20260504203010 | 72 | 185 | 4.3 | 8.7 | 0.00 | 0.00 | 0.00 | 41 | 1011.4 |
| 20260504202507 | 72 | 69 | 0.9 | 6.1 | 0.00 | 0.00 | 0.00 | 42 | 1011.4 |
| 20260504202008 | 72 | 292 | 3.5 | 7.8 | 0.00 | 0.00 | 0.00 | 40 | 1011.4 |
| 20260504201509 | 72 | 258 | 2.6 | 9.6 | 0.00 | 0.00 | 0.00 | 41 | 1011.5 |
| 20260504201009 | 72 | 81 | 3.5 | 7.8 | 0.00 | 0.00 | 0.00 | 39 | 1011.6 |
| 20260504195507 | 72 | 208 | 1.7 | 9.6 | 0.00 | 0.00 | 0.00 | 40 | 1011.7 |
| 20260504195009 | 72 | 66 | 2.6 | 10.4 | 0.00 | 0.00 | 0.00 | 40 | 1011.7 |
| 20260504194508 | 72 | 272 | 2.6 | 10.4 | 0.00 | 0.00 | 0.00 | 39 | 1011.6 |
| 20260504194008 | 73 | 284 | 1.7 | 7.0 | 0.00 | 0.00 | 0.00 | 40 | 1011.7 |
| 20260504193507 | 72 | 240 | 2.6 | 7.0 | 0.00 | 0.00 | 0.00 | 41 | 1011.7 |
| 20260504193009 | 72 | 144 | 1.7 | 8.7 | 0.00 | 0.00 | 0.00 | 37 | 1011.7 |
| 20260504192507 | 72 | 293 | 4.3 | 8.7 | 0.00 | 0.00 | 0.00 | 38 | 1012.0 |
| 20260504191509 | 72 | 5 | 3.5 | 8.7 | 0.00 | 0.00 | 0.00 | 40 | 1012.1 |
| 20260504191009 | 72 | 276 | 3.5 | 13.0 | 0.00 | 0.00 | 0.00 | 37 | 1012.0 |
| 20260504190010 | 72 | 125 | 2.6 | 6.1 | 0.00 | 0.00 | 0.00 | 38 | 1012.0 |
| 20260504185507 | 71 | 98 | 2.6 | 7.0 | 0.00 | 0.00 | 0.00 | 38 | 1012.1 |
| 20260504185009 | 71 | 319 | 1.7 | 7.8 | 0.00 | 0.00 | 0.00 | 40 | 1012.1 |
| 20260504184507 | 71 | 182 | 4.3 | 7.8 | 0.00 | 0.00 | 0.00 | 39 | 1012.1 |
| 20260504184009 | 70 | 163 | 1.7 | 5.2 | 0.00 | 0.00 | 0.00 | 40 | 1012.3 |
| 20260504183507 | 71 | 130 | 2.6 | 6.1 | 0.00 | 0.00 | 0.00 | 40 | 1012.4 |
| 20260504183008 | 71 | 84 | 2.6 | 5.2 | 0.00 | 0.00 | 0.00 | 41 | 1012.4 |
| 20260504182507 | 71 | 231 | 3.5 | 13.0 | 0.00 | 0.00 | 0.00 | 40 | 1012.4 |
| 20260504182010 | 70 | 84 | 5.2 | 13.0 | 0.00 | 0.00 | 0.00 | 40 | 1012.6 |
| 20260504181507 | 71 | 321 | 2.6 | 8.7 | 0.00 | 0.00 | 0.00 | 44 | 1012.8 |
| 20260504180508 | 71 | 260 | 2.6 | 5.2 | 0.00 | 0.00 | 0.00 | 45 | 1013.0 |
| 20260504180009 | 70 | 181 | 2.6 | 8.7 | 0.00 | 0.00 | 0.00 | 41 | 1013.0 |
| 20260504175507 | 71 | 291 | 3.5 | 8.7 | 0.00 | 0.00 | 0.00 | 40 | 1013.0 |
| 20260504175009 | 71 | 329 | 4.3 | 8.7 | 0.00 | 0.00 | 0.00 | 38 | 1013.1 |
| 20260504174507 | 70 | 296 | 1.7 | 5.2 | 0.00 | 0.00 | 0.00 | 40 | 1013.1 |
| 20260504174009 | 70 | 183 | 3.5 | 7.8 | 0.00 | 0.00 | 0.00 | 41 | 1013.3 |
| 20260504173507 | 70 | 82 | 2.6 | 8.7 | 0.00 | 0.00 | 0.00 | 38 | 1013.3 |
| 20260504172509 | 70 | 281 | 2.6 | 7.0 | 0.00 | 0.00 | 0.00 | 42 | 1013.3 |
| 20260504172008 | 70 | 244 | 1.7 | 7.8 | 0.00 | 0.00 | 0.00 | 39 | 1013.4 |
| 20260504171507 | 69 | 28 | 2.6 | 7.8 | 0.00 | 0.00 | 0.00 | 42 | 1013.6 |
| 20260504170507 | 71 | 316 | 3.5 | 7.0 | 0.00 | 0.00 | 0.00 | 41 | 1013.6 |
| 20260504151008 | 66 | 286 | 2.6 | 7.0 | 0.00 | 0.00 | 0.00 | 46 | 1014.9 |
| 20260504150509 | 66 | 317 | 1.7 | 6.1 | 0.00 | 0.00 | 0.00 | 49 | 1014.9 |
| 20260504140507 | 62 | 200 | 1.7 | 5.2 | 0.00 | 0.00 | 0.00 | 57 | 1014.9 |
| 20260504130507 | 57 | 98 | 1.7 | 5.2 | 0.00 | 0.00 | 0.00 | 68 | 1015.4 |
| 20260504110507 | 42 | 90 | 0.0 | 0.0 | 0.00 | 0.00 | 0.00 | 89 | 1016.0 |
| 20260504100508 | 42 | 90 | 0.0 | 1.7 | 0.00 | 0.00 | 0.00 | 87 | 1016.1 |
| 20260504082007 | 42 | 178 | 0.0 | 0.0 | 0.00 | 0.00 | 0.00 | 85 | 1016.1 |
| 20260504081508 | 42 | 178 | 0.0 | 1.7 | 0.00 | 0.00 | 0.00 | 85 | 1016.0 |
| 20260504081007 | 42 | 178 | 0.0 | 1.7 | 0.00 | 0.00 | 0.00 | 85 | 1016.0 |
| 20260504080506 | 42 | 178 | 0.9 | 1.7 | 0.00 | 0.00 | 0.00 | 85 | 1015.9 |